Location: Northam
(31.6525°S, 116.6655°E)
Time: 04:00:39
(UTC+08:00)

Hubble Space Telescope - Visible Passes

Search period start: 22 August 2019 00:00
Search period end: 01 September 2019 00:00
Orbit: 536 x 540 km, 28.5° (Epoch: 21 August)

Date Brightness Start Highest point End Pass type
(mag) Time Alt. Az. Time Alt. Az. Time Alt. Az.
22 Aug 2.2 04:36:44 34° NE 04:36:44 34° NE 04:39:38 10° E visible
22 Aug 1.3 06:12:34 10° W 06:16:40 55° N 06:20:46 10° ENE visible
23 Aug 2.6 04:26:48 29° ENE 04:26:48 29° ENE 04:29:07 10° E visible
23 Aug 1.3 06:02:08 11° W 06:06:07 53° N 06:10:11 10° ENE visible
24 Aug 3.0 04:16:51 23° ENE 04:16:51 23° ENE 04:18:35 10° E visible
24 Aug 1.3 05:52:11 14° W 05:55:33 50° N 05:59:36 10° ENE visible
25 Aug 3.4 04:06:53 18° ENE 04:06:53 18° ENE 04:08:02 10° E visible
25 Aug 1.4 05:42:13 18° WNW 05:44:59 46° N 05:48:59 10° ENE visible
26 Aug 3.8 03:56:56 13° ENE 03:56:56 13° ENE 03:57:29 10° E visible
26 Aug 1.5 05:32:16 23° WNW 05:34:24 41° NNW 05:38:21 10° ENE visible
27 Aug 1.7 05:22:20 27° NW 05:23:49 36° NNW 05:27:40 10° NE visible
28 Aug 1.8 05:12:27 29° NW 05:13:14 31° NNW 05:16:56 10° NE visible
29 Aug 2.1 05:02:36 26° NNW 05:02:37 26° NNW 05:06:08 10° NE visible
30 Aug 2.5 04:52:48 21° N 04:52:48 21° N 04:55:16 10° NNE visible
31 Aug 3.1 04:43:04 15° N 04:43:04 15° N 04:44:16 10° NNE visible
